,,,PA_Meas_PMT16A,,PR_Meas_QMR101_102,,RH_Meas_QMH101,,SR_Meas_QMS101,,TA_Meas_QMH101,,GenWind,,GenWind,
date,time,status,PA,status,PR,status,RH,status,SR,status,TA,status,DirAvg,status,SpdAvg,
2012-09-06, 00:00:04,VALID,1002.05,VALID,0,VALID,88.8774,VALID,0,VALID,23.8573,VALID,12,VALID,0.533984,
2012-09-06, 00:01:04,VALID,1002.06,VALID,0,VALID,88.8546,VALID,0,VALID,23.836,VALID,12,VALID,0.634766,
2012-09-06, 00:02:04,VALID,1002.06,VALID,0,VALID,88.7935,VALID,0,VALID,23.8768,VALID,12,VALID,0.282813,
2012-09-06, 00:03:04,VALID,1002.07,VALID,0,VALID,88.763,VALID,0,VALID,23.836,VALID,12,VALID,0,
2012-09-06, 00:04:04,VALID,1002.02,VALID,0,VALID,88.7554,VALID,0,VALID,23.8165,VALID,12,VALID,0.226172,
2012-09-06, 00:05:04,VALID,1002.05,VALID,0,VALID,88.7325,VALID,0,VALID,23.8378,VALID,12,VALID,0.608594,
2012-09-06, 00:06:04,VALID,1002.02,VALID,0,VALID,88.6028,VALID,0,VALID,23.836,VALID,12,VALID,0.632031,
2012-09-06, 00:07:04,VALID,1002.02,VALID,0,VALID,88.6562,VALID,0,VALID,23.8165,VALID,12,VALID,0.943359,
2012-09-06, 00:08:04,VALID,1002.02,VALID,0,VALID,88.5875,VALID,0,VALID,23.836,VALID,12,VALID,0.935547,
2012-09-06, 00:09:04,VALID,1001.99,VALID,0,VALID,88.4731,VALID,0,VALID,23.836,VALID,12,VALID,1.01133,
2012-09-06, 00:10:04,VALID,1002.04,VALID,0,VALID,88.5494,VALID,0,VALID,23.8378,VALID,12,VALID,0.700781,
2012-09-06, 00:11:04,VALID,1002,VALID,0,VALID,88.4731,VALID,0,VALID,23.7189,VALID,12,VALID,0.469531,
2012-09-06, 00:12:04,VALID,1001.97,VALID,0,VALID,88.9614,VALID,0,VALID,23.6799,VALID,12,VALID,0.129297,
2012-09-06, 00:13:04,VALID,1001.96,VALID,0,VALID,89.3657,VALID,0,VALID,23.6817,VALID,12,VALID,0.567969,
2012-09-06, 00:14:04,VALID,1001.91,VALID,0,VALID,89.4573,VALID,0,VALID,23.6799,VALID,12,VALID,0.483594,
2012-09-06, 00:15:04,VALID,1001.92,VALID,0,VALID,89.32,VALID,0,VALID,23.6994,VALID,12,VALID,0.380078,
2012-09-06, 00:16:04,VALID,1001.89,VALID,0,VALID,88.9919,VALID,0,VALID,23.7402,VALID,12,VALID,0.413672,
2012-09-06, 00:17:04,VALID,1001.89,VALID,0,VALID,88.6409,VALID,0,VALID,23.7579,VALID,12,VALID,0.467187,
2012-09-06, 00:18:04,VALID,1001.9,VALID,0,VALID,88.3205,VALID,0,VALID,23.8378,VALID,12,VALID,0.385156,
2012-09-06, 00:19:04,VALID,1001.9,VALID,0,VALID,88.0077,VALID,0,VALID,23.8768,VALID,12,VALID,0.762109,
2012-09-06, 00:20:04,VALID,1001.9,VALID,0,VALID,87.7864,VALID,0,VALID,23.8555,VALID,41,VALID,0.983984,
2012-09-06, 00:21:04,VALID,1001.91,VALID,0,VALID,87.794,VALID,0,VALID,23.8963,VALID,45,VALID,1.05156,
2012-09-06, 00:22:04,VALID,1001.89,VALID,0,VALID,87.9237,VALID,0,VALID,23.8963,VALID,45,VALID,0.995313,
2012-09-06, 00:23:04,VALID,1001.89,VALID,0,VALID,87.733,VALID,0,VALID,23.836,VALID,45,VALID,1.08359,
2012-09-06, 00:24:04,VALID,1001.89,VALID,0,VALID,87.6109,VALID,0,VALID,23.7579,VALID,50,VALID,0.79375,
2012-09-06, 00:25:04,VALID,1001.88,VALID,0,VALID,88.4349,VALID,0,VALID,23.6994,VALID,54,VALID,1.08359,
2012-09-06, 00:26:04,VALID,1001.88,VALID,0,VALID,88.6333,VALID,0,VALID,23.6409,VALID,54,VALID,1.19766,
2012-09-06, 00:27:04,VALID,1001.85,VALID,0,VALID,88.9995,VALID,0,VALID,23.6409,VALID,54,VALID,1.25156,
2012-09-06, 00:28:04,VALID,1001.86,VALID,0,VALID,89.2208,VALID,0,VALID,23.6799,VALID,54,VALID,1.19648,
2012-09-06, 00:29:04,VALID,1001.83,VALID,0,VALID,89.2055,VALID,0,VALID,23.7012,VALID,54,VALID,1.16406,
2012-09-06, 00:30:04,VALID,1001.83,VALID,0,VALID,89.0529,VALID,0,VALID,23.6994,VALID,54,VALID,1.04492,
2012-09-06, 00:31:04,VALID,1001.79,VALID,0,VALID,89.0529,VALID,0,VALID,23.7189,VALID,51,VALID,1.08086,
2012-09-06, 00:32:04,VALID,1001.74,VALID,0,VALID,88.9995,VALID,0,VALID,23.7402,VALID,42,VALID,0.966797,
2012-09-06, 00:33:04,VALID,1001.75,VALID,0,VALID,89.0224,VALID,0,VALID,23.7189,VALID,32,VALID,1.02266,
2012-09-06, 00:34:04,VALID,1001.73,VALID,0,VALID,89.1063,VALID,0,VALID,23.6994,VALID,27,VALID,0.846094,
2012-09-06, 00:35:04,VALID,1001.71,VALID,0,VALID,89.0987,VALID,0,VALID,23.7012,VALID,27,VALID,0.914453,
2012-09-06, 00:36:04,VALID,1001.72,VALID,0,VALID,89.1597,VALID,0.104696,VALID,23.6817,VALID,27,VALID,0.852734,
2012-09-06, 00:37:04,VALID,1001.68,VALID,0,VALID,89.236,VALID,0,VALID,23.6604,VALID,27,VALID,0.883984,
2012-09-06, 00:38:04,VALID,1001.68,VALID,0,VALID,89.175,VALID,0,VALID,23.6214,VALID,27,VALID,0.865625,
2012-09-06, 00:39:04,VALID,1001.69,VALID,0,VALID,89.6862,VALID,0,VALID,23.5823,VALID,31,VALID,1.01406,
2012-09-06, 00:40:04,VALID,1001.64,VALID,0,VALID,89.9837,VALID,0,VALID,23.5841,VALID,49,VALID,0.876562,
2012-09-06, 00:41:04,VALID,1001.64,VALID,0,VALID,89.8693,VALID,0.104696,VALID,23.5823,VALID,49,VALID,0.847656,
2012-09-06, 00:42:04,VALID,1001.65,VALID,0,VALID,89.3352,VALID,0.104696,VALID,23.5823,VALID,49,VALID,0.544922,
2012-09-06, 00:43:04,VALID,1001.65,VALID,0,VALID,89.4726,VALID,0,VALID,23.5628,VALID,49,VALID,0.586328,
2012-09-06, 00:44:04,VALID,1001.65,VALID,0,VALID,89.5641,VALID,0,VALID,23.5433,VALID,49,VALID,0.421875,
2012-09-06, 00:45:04,VALID,1001.66,VALID,0,VALID,89.5412,VALID,0,VALID,23.5238,VALID,55,VALID,0.414063,
2012-09-06, 00:46:04,VALID,1001.66,VALID,0,VALID,89.732,VALID,0,VALID,23.5238,VALID,55,VALID,0.430469,
2012-09-06, 00:47:04,VALID,1001.68,VALID,0,VALID,89.7777,VALID,0,VALID,23.5043,VALID,55,VALID,0.578906,
2012-09-06, 00:48:04,VALID,1001.7,VALID,0,VALID,89.7549,VALID,0,VALID,23.4848,VALID,55,VALID,0.542578,
2012-09-06, 00:49:04,VALID,1001.7,VALID,0,VALID,89.3428,VALID,0,VALID,23.4653,VALID,82,VALID,0.800391,
2012-09-06, 00:50:04,VALID,1001.7,VALID,0,VALID,89.2284,VALID,0,VALID,23.4848,VALID,92,VALID,0.844141,
2012-09-06, 00:51:04,VALID,1001.66,VALID,0,VALID,88.6409,VALID,0,VALID,23.5238,VALID,96,VALID,1.09844,
2012-09-06, 00:52:04,VALID,1001.66,VALID,0,VALID,88.0229,VALID,0,VALID,23.5628,VALID,106,VALID,1.34922,
2012-09-06, 00:53:04,VALID,1001.64,VALID,0,VALID,87.672,VALID,0,VALID,23.6622,VALID,96,VALID,1.26914,
2012-09-06, 00:54:04,VALID,1001.61,VALID,0,VALID,87.4202,VALID,0,VALID,23.6799,VALID,117,VALID,1.23242,
2012-09-06, 00:55:04,VALID,1001.62,VALID,0,VALID,87.6033,VALID,0,VALID,23.7189,VALID,109,VALID,1.21484,
2012-09-06, 00:56:04,VALID,1001.62,VALID,0,VALID,87.6491,VALID,0,VALID,23.7189,VALID,110,VALID,1.07266,
2012-09-06, 00:57:04,VALID,1001.61,VALID,0,VALID,87.8169,VALID,0,VALID,23.6799,VALID,105,VALID,0.845703,
2012-09-06, 00:58:04,VALID,1001.62,VALID,0,VALID,88.0534,VALID,0,VALID,23.6604,VALID,104,VALID,0.833594,
2012-09-06, 00:59:04,VALID,1001.63,VALID,0,VALID,88.2671,VALID,0,VALID,23.6427,VALID,103,VALID,0.684375,
2012-09-06, 01:00:04,VALID,1001.62,VALID,0,VALID,88.4807,VALID,0,VALID,23.5841,VALID,92,VALID,0.371484,
2012-09-06, 01:01:04,VALID,1001.65,VALID,0,VALID,88.908,VALID,0,VALID,23.5238,VALID,85,VALID,0.701563,
2012-09-06, 01:02:04,VALID,1001.6,VALID,0,VALID,89.2894,VALID,0,VALID,23.4653,VALID,65,VALID,0.675391,
2012-09-06, 01:03:04,VALID,1001.62,VALID,0,VALID,89.7091,VALID,0,VALID,23.3872,VALID,62,VALID,0.581641,
2012-09-06, 01:04:04,VALID,1001.63,VALID,0,VALID,90.4034,VALID,0,VALID,23.3482,VALID,62,VALID,0.614453,
2012-09-06, 01:05:04,VALID,1001.61,VALID,0,VALID,90.8077,VALID,0,VALID,23.2702,VALID,62,VALID,0.411328,
2012-09-06, 01:06:04,VALID,1001.6,VALID,0,VALID,91.2197,VALID,0,VALID,23.2117,VALID,62,VALID,0.0410156,
2012-09-06, 01:07:04,VALID,1001.56,VALID,0,VALID,91.3418,VALID,0,VALID,23.1939,VALID,35,VALID,0.584375,
2012-09-06, 01:08:04,VALID,1001.52,VALID,0,VALID,91.09,VALID,0,VALID,23.1726,VALID,110,VALID,0.434766,
2012-09-06, 01:09:04,VALID,1001.52,VALID,0,VALID,90.8459,VALID,0.104696,VALID,23.1726,VALID,110,VALID,0.0480469,
2012-09-06, 01:10:04,VALID,1001.51,VALID,0,VALID,90.4263,VALID,0,VALID,23.2117,VALID,113,VALID,0.828125,
2012-09-06, 01:11:04,VALID,1001.47,VALID,0,VALID,89.6938,VALID,0,VALID,23.3092,VALID,130,VALID,0.975391,
2012-09-06, 01:12:04,VALID,1001.47,VALID,0,VALID,88.6257,VALID,0,VALID,23.4653,VALID,133,VALID,1.0875,
2012-09-06, 01:13:04,VALID,1001.47,VALID,0,VALID,87.588,VALID,0.104696,VALID,23.6214,VALID,131,VALID,1.35664,
2012-09-06, 01:14:04,VALID,1001.47,VALID,0,VALID,86.3444,VALID,0,VALID,23.7775,VALID,126,VALID,2.22266,
2012-09-06, 01:15:04,VALID,1001.44,VALID,0,VALID,85.2229,VALID,0.104696,VALID,23.914,VALID,126,VALID,1.68203,
2012-09-06, 01:16:04,VALID,1001.42,VALID,0,VALID,84.3989,VALID,0,VALID,24.0134,VALID,125,VALID,1.73984,
2012-09-06, 01:17:04,VALID,1001.47,VALID,0,VALID,83.9411,VALID,0,VALID,24.0701,VALID,129,VALID,1.02656,
2012-09-06, 01:18:04,VALID,1001.45,VALID,0,VALID,83.5825,VALID,0,VALID,24.1092,VALID,136,VALID,1.68906,
2012-09-06, 01:19:04,VALID,1001.41,VALID,0,VALID,83.4299,VALID,0,VALID,24.1696,VALID,136,VALID,1.7293,
2012-09-06, 01:20:04,VALID,1001.44,VALID,0,VALID,83.4146,VALID,0,VALID,24.1696,VALID,135,VALID,1.59727,
2012-09-06, 01:21:04,VALID,1001.42,VALID,0,VALID,83.4375,VALID,0,VALID,24.1677,VALID,124,VALID,1.22305,
2012-09-06, 01:22:04,VALID,1001.41,VALID,0,VALID,83.4299,VALID,0,VALID,24.1677,VALID,127,VALID,0.942187,
2012-09-06, 01:23:04,VALID,1001.4,VALID,0,VALID,83.4146,VALID,0,VALID,24.1677,VALID,120,VALID,1.31875,
2012-09-06, 01:24:04,VALID,1001.4,VALID,0,VALID,83.1171,VALID,0,VALID,24.2281,VALID,123,VALID,1.44102,
2012-09-06, 01:25:04,VALID,1001.42,VALID,0,VALID,83.6054,VALID,0,VALID,24.2476,VALID,118,VALID,1.03203,
2012-09-06, 01:26:04,VALID,1001.41,VALID,0,VALID,84.0708,VALID,0,VALID,24.2086,VALID,119,VALID,1.31016,
2012-09-06, 01:27:04,VALID,1001.44,VALID,0,VALID,84.3226,VALID,0,VALID,24.1677,VALID,125,VALID,1.18633,
2012-09-06, 01:28:04,VALID,1001.42,VALID,0,VALID,84.7422,VALID,0,VALID,24.15,VALID,121,VALID,0.928125,
2012-09-06, 01:29:04,VALID,1001.44,VALID,0,VALID,84.6125,VALID,0,VALID,24.1305,VALID,129,VALID,1.28594,
2012-09-06, 01:30:04,VALID,1001.44,VALID,0,VALID,84.4446,VALID,0,VALID,24.1092,VALID,156,VALID,0.841016,
2012-09-06, 01:31:04,VALID,1001.41,VALID,0,VALID,84.1852,VALID,0,VALID,24.1482,VALID,146,VALID,1.25117,
2012-09-06, 01:32:04,VALID,1001.41,VALID,0,VALID,83.9792,VALID,0,VALID,24.1872,VALID,149,VALID,1.1418,
2012-09-06, 01:33:04,VALID,1001.39,VALID,0,VALID,83.2392,VALID,0,VALID,24.2476,VALID,136,VALID,1.74414,
2012-09-06, 01:34:04,VALID,1001.37,VALID,0,VALID,82.8653,VALID,0,VALID,24.2866,VALID,127,VALID,1.33984,
2012-09-06, 01:35:04,VALID,1001.38,VALID,0,VALID,83.0103,VALID,0,VALID,24.2848,VALID,131,VALID,1.16406,
2012-09-06, 01:36:04,VALID,1001.41,VALID,0,VALID,82.7738,VALID,0,VALID,24.3452,VALID,135,VALID,1.55977,
2012-09-06, 01:37:04,VALID,1001.39,VALID,0,VALID,82.2702,VALID,0,VALID,24.3842,VALID,145,VALID,1.47695,
2012-09-06, 01:38:04,VALID,1001.42,VALID,0,VALID,82.4533,VALID,0,VALID,24.4037,VALID,143,VALID,1.38711,
2012-09-06, 01:39:04,VALID,1001.4,VALID,0,VALID,82.2549,VALID,0,VALID,24.4037,VALID,135,VALID,1.41094,
2012-09-06, 01:40:04,VALID,1001.4,VALID,0,VALID,81.7285,VALID,0,VALID,24.4233,VALID,140,VALID,1.25273,
2012-09-06, 01:41:04,VALID,1001.37,VALID,0,VALID,80.8816,VALID,0,VALID,24.4214,VALID,135,VALID,1.33164,
2012-09-06, 01:42:04,VALID,1001.39,VALID,0,VALID,80.4772,VALID,0,VALID,24.4214,VALID,133,VALID,1.10117,
2012-09-06, 01:43:04,VALID,1001.42,VALID,0,VALID,80.3933,VALID,0,VALID,24.4428,VALID,134,VALID,0.989844,
2012-09-06, 01:44:04,VALID,1001.39,VALID,0,VALID,80.378,VALID,0,VALID,24.4623,VALID,133,VALID,0.903516,
2012-09-06, 01:45:04,VALID,1001.41,VALID,0,VALID,80.1797,VALID,0,VALID,24.4409,VALID,140,VALID,1.01211,
2012-09-06, 01:46:04,VALID,1001.38,VALID,0,VALID,80.1797,VALID,0,VALID,24.4428,VALID,139,VALID,0.772266,
2012-09-06, 01:47:04,VALID,1001.36,VALID,0,VALID,79.6914,VALID,0,VALID,24.4214,VALID,132,VALID,1.45625,
2012-09-06, 01:48:04,VALID,1001.33,VALID,0,VALID,79.5312,VALID,0,VALID,24.4604,VALID,145,VALID,1.00156,
2012-09-06, 01:49:04,VALID,1001.3,VALID,0,VALID,79.554,VALID,0.104696,VALID,24.48,VALID,146,VALID,1.08984,
2012-09-06, 01:50:04,VALID,1001.29,VALID,0,VALID,79.3557,VALID,0,VALID,24.4604,VALID,147,VALID,1.48008,
2012-09-06, 01:51:04,VALID,1001.3,VALID,0,VALID,79.1802,VALID,0,VALID,24.5209,VALID,145,VALID,1.56211,
2012-09-06, 01:52:04,VALID,1001.28,VALID,0,VALID,79.1726,VALID,0,VALID,24.519,VALID,140,VALID,1.25898,
2012-09-06, 01:53:04,VALID,1001.29,VALID,0,VALID,79.0886,VALID,0,VALID,24.4995,VALID,132,VALID,1.05938,
2012-09-06, 01:54:04,VALID,1001.26,VALID,0,VALID,79.0429,VALID,0,VALID,24.4995,VALID,145,VALID,1.32461,
2012-09-06, 01:55:04,VALID,1001.3,VALID,0,VALID,79.081,VALID,0,VALID,24.5209,VALID,139,VALID,0.994531,
2012-09-06, 01:56:04,VALID,1001.3,VALID,0,VALID,79.1955,VALID,0,VALID,24.5013,VALID,149,VALID,0.828516,
2012-09-06, 01:57:04,VALID,1001.27,VALID,0,VALID,79.3557,VALID,0,VALID,24.4623,VALID,137,VALID,1.4,
2012-09-06, 01:58:04,VALID,1001.28,VALID,0,VALID,79.4015,VALID,0,VALID,24.4214,VALID,140,VALID,1.67539,
2012-09-06, 01:59:04,VALID,1001.28,VALID,0,VALID,79.5998,VALID,0,VALID,24.4233,VALID,136,VALID,1.38477,
2012-09-06, 02:00:04,VALID,1001.28,VALID,0,VALID,79.5312,VALID,0,VALID,24.4233,VALID,148,VALID,1.68633,
2012-09-06, 02:01:04,VALID,1001.28,VALID,0,VALID,79.4396,VALID,0,VALID,24.4214,VALID,142,VALID,1.94141,
2012-09-06, 02:02:04,VALID,1001.26,VALID,0,VALID,79.3786,VALID,0,VALID,24.4409,VALID,146,VALID,1.9125,
2012-09-06, 02:03:04,VALID,1001.28,VALID,0,VALID,79.4015,VALID,0,VALID,24.4604,VALID,143,VALID,2.01719,
2012-09-06, 02:04:04,VALID,1001.28,VALID,0,VALID,79.5693,VALID,0,VALID,24.4623,VALID,149,VALID,1.54141,
2012-09-06, 02:05:04,VALID,1001.29,VALID,0,VALID,79.6761,VALID,0,VALID,24.4428,VALID,146,VALID,1.76211,
2012-09-06, 02:06:04,VALID,1001.27,VALID,0,VALID,79.5693,VALID,0,VALID,24.4428,VALID,150,VALID,2.11953,
2012-09-06, 02:07:04,VALID,1001.26,VALID,0,VALID,79.5998,VALID,0,VALID,24.4428,VALID,145,VALID,1.84727,
2012-09-06, 02:08:04,VALID,1001.22,VALID,0,VALID,79.5388,VALID,0,VALID,24.4233,VALID,148,VALID,1.91992,
2012-09-06, 02:09:04,VALID,1001.22,VALID,0,VALID,79.348,VALID,0,VALID,24.4428,VALID,153,VALID,2.31562,
2012-09-06, 02:10:04,VALID,1001.21,VALID,0,VALID,79.1115,VALID,0,VALID,24.4818,VALID,151,VALID,2.22148,
2012-09-06, 02:11:04,VALID,1001.22,VALID,0,VALID,79.0581,VALID,0,VALID,24.4818,VALID,156,VALID,1.80586,
2012-09-06, 02:12:04,VALID,1001.24,VALID,0,VALID,78.8445,VALID,0,VALID,24.48,VALID,158,VALID,2.03633,
2012-09-06, 02:13:04,VALID,1001.21,VALID,0,VALID,78.6309,VALID,0,VALID,24.48,VALID,158,VALID,1.94414,
2012-09-06, 02:14:04,VALID,1001.21,VALID,0,VALID,78.4783,VALID,0,VALID,24.4995,VALID,160,VALID,2.19922,
2012-09-06, 02:15:04,VALID,1001.22,VALID,0,VALID,78.4554,VALID,0,VALID,24.5209,VALID,158,VALID,1.68633,
2012-09-06, 02:16:04,VALID,1001.22,VALID,0,VALID,78.6156,VALID,0,VALID,24.5209,VALID,156,VALID,1.50977,
2012-09-06, 02:17:04,VALID,1001.24,VALID,0,VALID,78.524,VALID,0,VALID,24.5013,VALID,167,VALID,1.73281,
2012-09-06, 02:18:04,VALID,1001.24,VALID,0,VALID,78.5012,VALID,0,VALID,24.48,VALID,158,VALID,1.81523,
2012-09-06, 02:19:04,VALID,1001.25,VALID,0,VALID,78.4783,VALID,0,VALID,24.4818,VALID,162,VALID,1.70117,
2012-09-06, 02:20:04,VALID,1001.26,VALID,0,VALID,78.5012,VALID,0,VALID,24.4604,VALID,153,VALID,1.35586,
2012-09-06, 02:21:04,VALID,1001.25,VALID,0,VALID,78.6003,VALID,0,VALID,24.4409,VALID,150,VALID,1.21289,
2012-09-06, 02:22:04,VALID,1001.25,VALID,0,VALID,78.7987,VALID,0,VALID,24.4233,VALID,152,VALID,1.07578,
2012-09-06, 02:23:04,VALID,1001.22,VALID,0,VALID,78.8521,VALID,0,VALID,24.3842,VALID,153,VALID,1.1207,
2012-09-06, 02:24:04,VALID,1001.24,VALID,0,VALID,78.9666,VALID,0,VALID,24.3238,VALID,153,VALID,1.08008,
2012-09-06, 02:25:04,VALID,1001.21,VALID,0,VALID,79.02,VALID,0,VALID,24.3238,VALID,150,VALID,1.27969,
2012-09-06, 02:26:04,VALID,1001.2,VALID,0,VALID,79.0505,VALID,0,VALID,24.3452,VALID,163,VALID,1.13086,
2012-09-06, 02:27:04,VALID,1001.17,VALID,0,VALID,79.1115,VALID,0,VALID,24.3257,VALID,163,VALID,1.33672,
2012-09-06, 02:28:04,VALID,1001.18,VALID,0,VALID,78.8979,VALID,0,VALID,24.3257,VALID,153,VALID,2.13945,
2012-09-06, 02:29:04,VALID,1001.18,VALID,0,VALID,78.9666,VALID,0,VALID,24.3238,VALID,164,VALID,1.21602,
2012-09-06, 02:30:04,VALID,1001.17,VALID,0,VALID,78.7835,VALID,0,VALID,24.3452,VALID,160,VALID,1.28672,
2012-09-06, 02:31:04,VALID,1001.16,VALID,0,VALID,78.7072,VALID,0,VALID,24.3647,VALID,163,VALID,1.69258,
2012-09-06, 02:32:04,VALID,1001.16,VALID,0,VALID,78.6309,VALID,0,VALID,24.3647,VALID,172,VALID,1.34531,
2012-09-06, 02:33:04,VALID,1001.19,VALID,0,VALID,78.4935,VALID,0,VALID,24.3647,VALID,166,VALID,1.39297,
2012-09-06, 02:34:04,VALID,1001.18,VALID,0,VALID,78.6156,VALID,0,VALID,24.3257,VALID,161,VALID,0.801172,
2012-09-06, 02:35:04,VALID,1001.2,VALID,0,VALID,78.6766,VALID,0,VALID,24.3062,VALID,161,VALID,0.88125,
2012-09-06, 02:36:04,VALID,1001.2,VALID,0,VALID,78.7835,VALID,0,VALID,24.2866,VALID,169,VALID,0.807031,
2012-09-06, 02:37:04,VALID,1001.21,VALID,0,VALID,78.6614,VALID,0,VALID,24.2848,VALID,167,VALID,1.13437,
2012-09-06, 02:38:04,VALID,1001.19,VALID,0,VALID,78.4401,VALID,0,VALID,24.3062,VALID,142,VALID,1.25898,
2012-09-06, 02:39:04,VALID,1001.22,VALID,0,VALID,78.4401,VALID,0,VALID,24.2848,VALID,155,VALID,1.21445,
2012-09-06, 02:40:04,VALID,1001.21,VALID,0,VALID,78.524,VALID,0,VALID,24.3062,VALID,144,VALID,0.810156,
2012-09-06, 02:41:04,VALID,1001.19,VALID,0,VALID,78.5012,VALID,0,VALID,24.2866,VALID,144,VALID,0.938672,
2012-09-06, 02:42:04,VALID,1001.19,VALID,0,VALID,78.5851,VALID,0,VALID,24.2671,VALID,135,VALID,0.805469,
2012-09-06, 02:43:04,VALID,1001.14,VALID,0,VALID,78.7377,VALID,0,VALID,24.2263,VALID,133,VALID,0.503516,
2012-09-06, 02:44:04,VALID,1001.18,VALID,0,VALID,78.9284,VALID,0,VALID,24.1872,VALID,133,VALID,0.559375,
2012-09-06, 02:45:04,VALID,1001.18,VALID,0,VALID,79.081,VALID,0,VALID,24.1696,VALID,133,VALID,0.463281,
2012-09-06, 02:46:04,VALID,1001.19,VALID,0,VALID,79.0963,VALID,0,VALID,24.15,VALID,133,VALID,0.673437,
2012-09-06, 02:47:04,VALID,1001.21,VALID,0,VALID,78.73,VALID,0,VALID,24.15,VALID,158,VALID,1.06094,
2012-09-06, 02:48:04,VALID,1001.21,VALID,0,VALID,78.7758,VALID,0,VALID,24.1482,VALID,158,VALID,0.728125,
2012-09-06, 02:49:04,VALID,1001.22,VALID,0,VALID,78.6385,VALID,0,VALID,24.1891,VALID,159,VALID,0.835156,
2012-09-06, 02:50:04,VALID,1001.23,VALID,0,VALID,78.3333,VALID,0,VALID,24.2086,VALID,161,VALID,1.01953,
2012-09-06, 02:51:04,VALID,1001.26,VALID,0,VALID,78.2418,VALID,0,VALID,24.2476,VALID,145,VALID,0.730859,
2012-09-06, 02:52:04,VALID,1001.25,VALID,0,VALID,78.2189,VALID,0,VALID,24.2476,VALID,145,VALID,0.523828,
2012-09-06, 02:53:04,VALID,1001.26,VALID,0,VALID,78.3104,VALID,0,VALID,24.2476,VALID,145,VALID,0.503906,
2012-09-06, 02:54:04,VALID,1001.29,VALID,0,VALID,78.1655,VALID,0,VALID,24.2281,VALID,164,VALID,0.766797,
2012-09-06, 02:55:04,VALID,1001.3,VALID,0,VALID,78.1578,VALID,0,VALID,24.2476,VALID,171,VALID,0.885547,
2012-09-06, 02:56:04,VALID,1001.34,VALID,0,VALID,78.0892,VALID,0,VALID,24.2476,VALID,189,VALID,1.0168,
2012-09-06, 02:57:04,VALID,1001.35,VALID,0,VALID,77.6619,VALID,0,VALID,24.3257,VALID,184,VALID,1.49883,
2012-09-06, 02:58:04,VALID,1001.34,VALID,0,VALID,77.2957,VALID,0,VALID,24.3842,VALID,185,VALID,1.13945,
2012-09-06, 02:59:04,VALID,1001.37,VALID,0,VALID,76.9981,VALID,0,VALID,24.4428,VALID,184,VALID,1.20313,
2012-09-06, 03:00:04,VALID,1001.36,VALID,0,VALID,76.3725,VALID,0,VALID,24.4818,VALID,190,VALID,1.24531,
2012-09-06, 03:01:04,VALID,1001.38,VALID,0,VALID,76.3038,VALID,0,VALID,24.5209,VALID,193,VALID,0.960938,
2012-09-06, 03:02:04,VALID,1001.39,VALID,0,VALID,75.9071,VALID,0,VALID,24.5599,VALID,195,VALID,1.01641,
2012-09-06, 03:03:04,VALID,1001.39,VALID,0,VALID,75.5409,VALID,0,VALID,24.6184,VALID,184,VALID,1.17656,
2012-09-06, 03:04:04,VALID,1001.39,VALID,0,VALID,75.0984,VALID,0,VALID,24.6575,VALID,192,VALID,1.12617,
2012-09-06, 03:05:04,VALID,1001.42,VALID,0,VALID,74.8847,VALID,0,VALID,24.6575,VALID,195,VALID,1.29688,
2012-09-06, 03:06:04,VALID,1001.41,VALID,0,VALID,74.9229,VALID,0,VALID,24.6575,VALID,191,VALID,1.13008,
2012-09-06, 03:07:04,VALID,1001.42,VALID,0,VALID,75.5485,VALID,0,VALID,24.6575,VALID,200,VALID,0.597656,
2012-09-06, 03:08:04,VALID,1001.42,VALID,0,VALID,76.2352,VALID,0,VALID,24.6184,VALID,251,VALID,0.710938,
2012-09-06, 03:09:04,VALID,1001.41,VALID,0,VALID,76.3344,VALID,0,VALID,24.5404,VALID,251,VALID,0.555078,
2012-09-06, 03:10:04,VALID,1001.43,VALID,0,VALID,76.7616,VALID,0,VALID,24.4818,VALID,251,VALID,0.40625,
2012-09-06, 03:11:04,VALID,1001.42,VALID,0,VALID,77.1355,VALID,0,VALID,24.4233,VALID,251,VALID,0.290625,
2012-09-06, 03:12:04,VALID,1001.43,VALID,0,VALID,76.1741,VALID,0,VALID,24.3842,VALID,213,VALID,0.95625,
2012-09-06, 03:13:04,VALID,1001.42,VALID,0,VALID,75.9529,VALID,0,VALID,24.3824,VALID,210,VALID,0.769922,
2012-09-06, 03:14:04,VALID,1001.43,VALID,0,VALID,75.6172,VALID,0,VALID,24.4428,VALID,212,VALID,0.841406,
2012-09-06, 03:15:04,VALID,1001.41,VALID,0,VALID,75.4417,VALID,0,VALID,24.4623,VALID,217,VALID,0.509766,
2012-09-06, 03:16:04,VALID,1001.44,VALID,0,VALID,75.6401,VALID,0,VALID,24.4409,VALID,217,VALID,0.445703,
2012-09-06, 03:17:04,VALID,1001.43,VALID,0,VALID,75.2815,VALID,0,VALID,24.4623,VALID,169,VALID,1.06875,
2012-09-06, 03:18:04,VALID,1001.43,VALID,0,VALID,74.7016,VALID,0,VALID,24.4995,VALID,183,VALID,0.836719,
2012-09-06, 03:19:04,VALID,1001.41,VALID,0,VALID,74.5643,VALID,0,VALID,24.5385,VALID,178,VALID,1.03398,
2012-09-06, 03:20:04,VALID,1001.42,VALID,0,VALID,74.1828,VALID,0,VALID,24.5794,VALID,180,VALID,1.6625,
2012-09-06, 03:21:04,VALID,1001.39,VALID,0,VALID,74.0302,VALID,0,VALID,24.638,VALID,171,VALID,1.63164,
2012-09-06, 03:22:04,VALID,1001.43,VALID,0,VALID,73.6411,VALID,0,VALID,24.6946,VALID,173,VALID,1.63672,
2012-09-06, 03:23:04,VALID,1001.39,VALID,0,VALID,73.7174,VALID,0,VALID,24.7142,VALID,169,VALID,1.32813,
2012-09-06, 03:24:04,VALID,1001.43,VALID,0,VALID,73.2138,VALID,0,VALID,24.7142,VALID,173,VALID,1.83555,
2012-09-06, 03:25:04,VALID,1001.41,VALID,0,VALID,73.313,VALID,0,VALID,24.7356,VALID,179,VALID,1.74258,
2012-09-06, 03:26:04,VALID,1001.42,VALID,0,VALID,73.3741,VALID,0,VALID,24.7356,VALID,183,VALID,1.525,
2012-09-06, 03:27:04,VALID,1001.42,VALID,0,VALID,73.2062,VALID,0,VALID,24.7337,VALID,180,VALID,1.61328,
2012-09-06, 03:28:04,VALID,1001.44,VALID,0,VALID,73.1909,VALID,0,VALID,24.7337,VALID,179,VALID,2.04531,
2012-09-06, 03:29:04,VALID,1001.43,VALID,0,VALID,73.2062,VALID,0,VALID,24.6946,VALID,177,VALID,1.74844,
2012-09-06, 03:30:04,VALID,1001.44,VALID,0,VALID,73.046,VALID,0,VALID,24.7356,VALID,178,VALID,1.96055,
2012-09-06, 03:31:04,VALID,1001.43,VALID,0,VALID,73.107,VALID,0,VALID,24.7142,VALID,192,VALID,1.52852,
2012-09-06, 03:32:04,VALID,1001.45,VALID,0,VALID,73.0231,VALID,0,VALID,24.7142,VALID,167,VALID,1.98828,
2012-09-06, 03:33:04,VALID,1001.43,VALID,0,VALID,73.2291,VALID,0.104696,VALID,24.7142,VALID,175,VALID,1.63633,
2012-09-06, 03:34:04,VALID,1001.48,VALID,0,VALID,73.2749,VALID,0,VALID,24.6556,VALID,172,VALID,1.73008,
2012-09-06, 03:35:04,VALID,1001.47,VALID,0,VALID,73.7021,VALID,0,VALID,24.677,VALID,163,VALID,1.58867,
2012-09-06, 03:36:04,VALID,1001.44,VALID,0,VALID,73.5038,VALID,0,VALID,24.6556,VALID,171,VALID,1.53672,
2012-09-06, 03:37:04,VALID,1001.47,VALID,0,VALID,73.3359,VALID,0,VALID,24.6751,VALID,173,VALID,1.44062,
2012-09-06, 03:38:04,VALID,1001.43,VALID,0,VALID,73.1604,VALID,0,VALID,24.6556,VALID,174,VALID,1.45547,
2012-09-06, 03:39:04,VALID,1001.45,VALID,0,VALID,73.0155,VALID,0.104696,VALID,24.6751,VALID,179,VALID,1.45547,
2012-09-06, 03:40:04,VALID,1001.44,VALID,0,VALID,72.9849,VALID,0,VALID,24.6751,VALID,187,VALID,1.17852,
2012-09-06, 03:41:04,VALID,1001.46,VALID,0,VALID,72.489,VALID,0.104696,VALID,24.6946,VALID,187,VALID,1.7457,
2012-09-06, 03:42:04,VALID,1001.48,VALID,0,VALID,72.2067,VALID,0.104696,VALID,24.7337,VALID,194,VALID,1.31523,
2012-09-06, 03:43:04,VALID,1001.46,VALID,0,VALID,72.1228,VALID,0,VALID,24.7532,VALID,178,VALID,2.21914,
2012-09-06, 03:44:04,VALID,1001.48,VALID,0,VALID,71.9321,VALID,0,VALID,24.7922,VALID,187,VALID,1.51016,
2012-09-06, 03:45:04,VALID,1001.48,VALID,0,VALID,71.7413,VALID,0.104696,VALID,24.7922,VALID,190,VALID,1.34023,